Weather History for 94294 - January, 2014

Change the Weather History Date:

Saturday, January 18, 2014

  Actual Average Record
Temperature  
Mean Temperature 80 °F -  
Max Temperature 88 °F 88 °F - ()
Min Temperature 73 °F 75 °F - ()
Cooling Degree Days 16    
Growing Degree Days 30 (Base 50)    
Moisture  
Dew Point 70 °F    
Average Humidity 65    
Maximum Humidity 83    
Minimum Humidity 41    
Precipitation  
Precipitation 0.00 in 0.31 in - ()
Sea Level Pressure  
Sea Level Pressure 29.80 in    
Wind  
Wind Speed 8 mph ()    
Max Wind Speed 20 mph    
Max Gust Speed -    
Visibility 7.4 miles    
Events Rain    
T = Trace of Precipitation, MM = Missing Value Source: Averaged Metar Reports

Daily Weather History Graph

Daily Weather History Graph

Search for Another Location

Airport or City:

Trip Planner

Search our weather history database for the weather conditions in past years. The results will help you decide how hot, cold, wet, or windy it might be!

Date:

Astronomy

Jan. 18, 2014 Rise Set
Actual Time 5:49 AM AEST 6:57 PM AEST
Civil Twilight 5:25 AM AEST 7:20 PM AEST
Nautical Twilight 4:57 AM AEST 7:49 PM AEST
Astronomical Twilight 4:28 AM AEST 8:18 PM AEST
Moon 8:08 PM AEST (1/18) 7:14 AM AEST (1/18)
Length of Visible Light 13h 55m
Length of Day
13h 08m
Full, 97% of the Moon is Illuminated
Jan 18
Full
Jan 24
Last Quarter
Jan 31
New
Feb 7
First Quarter
Feb 15
Full

Hourly Weather History & Observations

Time (AEST) Temp. Heat Index Dew Point Humidity Pressure Visibility Wind Dir Wind Speed Gust Speed Precip Events Conditions
12:00 AM 79 °F - 71 °F 72% 29.84 in - SSE 6.9 mph - -  
12:00 AM 78.8 °F - 71.6 °F 78% 29.83 in 6.2 mi SSE 6.9 mph - N/A   Unknown
12:30 AM 78.8 °F - 71.6 °F 78% 29.83 in 6.2 mi SE 5.8 mph - N/A   Unknown
1:00 AM 79 °F - 71 °F 70% 29.83 in - SE 6.9 mph - -  
1:00 AM 78.8 °F - 71.6 °F 78% 29.80 in 6.2 mi SE 6.9 mph - N/A   Scattered Clouds
1:30 AM 78.8 °F - 71.6 °F 78% 29.80 in 6.2 mi SSE 5.8 mph - N/A   Mostly Cloudy
2:00 AM 78.8 °F - 69.8 °F 74% 29.80 in 6.2 mi SE 6.9 mph - N/A   Mostly Cloudy
2:30 AM 78.8 °F - 69.8 °F 74% 29.80 in 6.2 mi SE 5.8 mph - N/A   Unknown
3:00 AM 78 °F - 71 °F 72% 29.79 in - SE 6.9 mph - -  
3:00 AM 78.8 °F - 69.8 °F 74% 29.77 in 6.2 mi SE 6.9 mph - N/A   Unknown
3:30 AM 77.0 °F - 69.8 °F 78% 29.77 in 6.2 mi SE 5.8 mph - N/A   Unknown
4:00 AM 77 °F - 70 °F 74% 29.80 in - SE 5.8 mph - -  
4:00 AM 77.0 °F - 69.8 °F 78% 29.77 in 6.2 mi SE 5.8 mph - N/A   Unknown
4:30 AM 77.0 °F - 69.8 °F 78% 29.77 in 6.2 mi SSE 5.8 mph - N/A   Scattered Clouds
5:00 AM 75.2 °F - 69.8 °F 83% 29.77 in 6.2 mi SSE 4.6 mph - N/A   Unknown
5:30 AM 75.2 °F - 69.8 °F 83% 29.80 in 6.2 mi South 5.8 mph - N/A   Unknown
6:00 AM 75 °F - 70 °F 81% 29.81 in 16 mi SSW 5.8 mph - -   Partly Cloudy
6:00 AM 75.2 °F - 69.8 °F 83% 29.80 in 6.2 mi SSW 5.8 mph - N/A   Scattered Clouds
6:30 AM 75.2 °F - 69.8 °F 83% 29.83 in 6.2 mi WSW 3.5 mph - N/A   Scattered Clouds
7:00 AM 79 °F - 71 °F 69% 29.85 in - WSW 4.6 mph - -  
7:00 AM 78.8 °F - 71.6 °F 78% 29.83 in 6.2 mi WSW 4.6 mph - N/A   Scattered Clouds
7:30 AM 80.6 °F 83.9 °F 69.8 °F 70% 29.83 in 6.2 mi SSW 5.8 mph - N/A   Partly Cloudy
8:00 AM 82.4 °F 86.3 °F 69.8 °F 66% 29.83 in 6.2 mi SE 6.9 mph - N/A   Scattered Clouds
8:30 AM 82.4 °F 86.3 °F 69.8 °F 66% 29.83 in 6.2 mi SSE 8.1 mph - N/A   Scattered Clouds
9:00 AM 85 °F - 68 °F 47% 29.85 in 19 mi SE 8.1 mph - -   Partly Cloudy
9:00 AM 84.2 °F 87.3 °F 68.0 °F 58% 29.83 in 6.2 mi SE 8.1 mph - N/A   Scattered Clouds
9:30 AM 86.0 °F 89.4 °F 68.0 °F 55% 29.83 in 6.2 mi East 6.9 mph - N/A   Scattered Clouds
10:00 AM 86 °F - 67 °F 44% 29.85 in - ESE 8.1 mph - -  
10:00 AM 86.0 °F 89.4 °F 68.0 °F 55% 29.83 in 6.2 mi ESE 8.1 mph - N/A   Scattered Clouds
10:30 AM 87.8 °F 91.4 °F 68.0 °F 52% 29.83 in 6.2 mi NE 15.0 mph - N/A   Scattered Clouds
11:00 AM 87.8 °F 91.4 °F 68.0 °F 52% 29.83 in 6.2 mi ENE 13.8 mph - N/A   Mostly Cloudy
11:30 AM 87.8 °F 91.4 °F 68.0 °F 52% 29.80 in 6.2 mi NE 13.8 mph - N/A   Scattered Clouds
12:00 PM 87 °F - 67 °F 41% 29.81 in 19 mi NE 15.0 mph - -   Partly Cloudy
12:00 PM 87.8 °F 90.4 °F 66.2 °F 49% 29.80 in 6.2 mi NE 15.0 mph - N/A   Scattered Clouds
12:30 PM 87.8 °F 91.4 °F 68.0 °F 52% 29.80 in 6.2 mi NE 16.1 mph - N/A Rain Light Rain Showers
1:00 PM 88 °F - 70 °F 45% 29.80 in - ENE 19.6 mph - -  
1:00 PM 87.8 °F 92.6 °F 69.8 °F 55% 29.77 in 6.2 mi ENE 19.6 mph - N/A Rain Light Rain Showers
1:30 PM 86.0 °F 90.4 °F 69.8 °F 58% 29.77 in 6.2 mi ENE 19.6 mph - N/A   Unknown
2:00 PM 87.8 °F 91.4 °F 68.0 °F 52% 29.74 in 6.2 mi ENE 19.6 mph - N/A   Scattered Clouds
2:30 PM 86.0 °F 89.4 °F 68.0 °F 55% 29.74 in 6.2 mi NE 19.6 mph - N/A   Scattered Clouds
3:00 PM 86 °F - 68 °F 46% 29.75 in 19 mi ENE 19.6 mph - -   Smoke
3:00 PM 86.0 °F 89.4 °F 68.0 °F 55% 29.74 in 6.2 mi ENE 19.6 mph - N/A   Scattered Clouds
3:30 PM 84.2 °F 87.3 °F 68.0 °F 58% 29.74 in 6.2 mi NE 17.3 mph - N/A   Scattered Clouds
4:00 PM 86 °F - 70 °F 51% 29.75 in - NE 15.0 mph - -  
4:00 PM 86.0 °F 90.4 °F 69.8 °F 58% 29.74 in 6.2 mi NE 15.0 mph - N/A   Scattered Clouds
4:30 PM 84.2 °F 88.4 °F 69.8 °F 62% 29.74 in 6.2 mi ENE 15.0 mph - N/A   Scattered Clouds
5:00 PM 84.2 °F 88.4 °F 69.8 °F 62% 29.74 in 6.2 mi NE 15.0 mph - N/A   Scattered Clouds
5:30 PM 84.2 °F 88.4 °F 69.8 °F 62% 29.74 in 6.2 mi ENE 12.7 mph - N/A   Scattered Clouds
6:00 PM 83 °F - 70 °F 57% 29.77 in 16 mi ENE 13.8 mph - -   Smoke
6:00 PM 82.4 °F 86.3 °F 69.8 °F 66% 29.77 in 6.2 mi ENE 13.8 mph - N/A   Scattered Clouds
6:30 PM 82.4 °F 86.3 °F 69.8 °F 66% 29.77 in 6.2 mi NE 10.4 mph - N/A   Scattered Clouds
7:00 PM 82 °F - 69 °F 58% 29.80 in - NE 10.4 mph - -  
7:00 PM 82.4 °F 86.3 °F 69.8 °F 66% 29.77 in 6.2 mi NE 10.4 mph - N/A   Scattered Clouds
7:30 PM 80.6 °F 83.9 °F 69.8 °F 70% 29.77 in 6.2 mi ENE 10.4 mph - N/A   Partly Cloudy
8:00 PM 80.6 °F 83.9 °F 69.8 °F 70% 29.80 in 6.2 mi NE 9.2 mph - N/A   Partly Cloudy
8:30 PM 80.6 °F 83.9 °F 69.8 °F 70% 29.80 in 6.2 mi NNE 8.1 mph - N/A   Partly Cloudy
9:00 PM 81 °F - 70 °F 62% 29.83 in 12 mi NNE 8.1 mph - -   Smoke
9:00 PM 80.6 °F 83.9 °F 69.8 °F 70% 29.83 in 6.2 mi NNE 8.1 mph - N/A   Scattered Clouds
9:30 PM 80.6 °F 83.9 °F 69.8 °F 70% 29.83 in 6.2 mi North 5.8 mph - N/A   Scattered Clouds
10:00 PM 80 °F - 71 °F 66% 29.85 in - NNE 6.9 mph - -  
10:00 PM 80.6 °F 84.6 °F 71.6 °F 74% 29.83 in 6.2 mi NNE 6.9 mph - N/A   Scattered Clouds
10:30 PM 80.6 °F 83.9 °F 69.8 °F 70% 29.83 in 6.2 mi North 6.9 mph - N/A   Scattered Clouds
11:00 PM 78.8 °F - 69.8 °F 74% 29.83 in 6.2 mi NNE 5.8 mph - N/A   Unknown
11:30 PM 78.8 °F - 69.8 °F 74% 29.83 in 6.2 mi North 5.8 mph - N/A   Unknown